Burns, OR

11:53 PM PDT on June 23, 2017 (GMT -0700)
Burns Municipal

Weather History for KBNO - February, 2013

Change the Weather History Date:

Friday, February 22, 2013

  Actual Average Record
Temperature  
Mean Temperature 33 °F 31 °F  
Max Temperature 40 °F 41 °F 62 °F (1995)
Min Temperature 26 °F 20 °F 1 °F (1952)
Degree Days  
Heating Degree Days 32 34  
Month to date heating degree days 751 815  
Since 1 July heating degree days 5151 5328  
Cooling Degree Days 0 0  
Month to date cooling degree days 0 0  
Year to date cooling degree days 0 0  
Moisture  
Dew Point 29 °F    
Average Humidity 75    
Maximum Humidity 96    
Minimum Humidity 54    
Precipitation  
Precipitation 0.08 in 0.04 in 0.25 in (1956)
Month to date precipitation 0.30 0.79  
Year to date precipitation 0.69 1.98  
Sea Level Pressure  
Sea Level Pressure 29.99 in    
Wind  
Wind Speed 7 mph (SW)    
Max Wind Speed 37 mph    
Max Gust Speed 51 mph    
Visibility 8 miles    
Events Rain , Snow    
T = Trace of Precipitation, MM = Missing Value Source: NWS Daily Summary

Daily Weather History Graph

Daily Weather History Graph

Search for Another Location

Airport or City:

Trip Planner

Search our weather history database for the weather conditions in past years. The results will help you decide how hot, cold, wet, or windy it might be!

Date:

Astronomy

Feb. 22, 2013 Rise Set
Actual Time 6:43 AM PST 5:36 PM PST
Civil Twilight 6:14 AM PST 6:05 PM PST
Nautical Twilight 5:40 AM PST 6:38 PM PST
Astronomical Twilight 5:07 AM PST 7:11 PM PST
Moon 2:48 PM PST (2/22) 4:35 AM PST (2/22)
Length of Visible Light 11h 50m
Length of Day
10h 52m
Waxing Gibbous, 91% of the Moon is Illuminated
Feb 22
Waxing Gibbous
Feb 25
Full
Mar 4
Last Quarter
Mar 11
New
Mar 19
First Quarter

Hourly Weather History & Observations

Time (PST) Temp. Windchill Dew Point Humidity Pressure Visibility Wind Dir Wind Speed Gust Speed Precip Events Conditions
12:53 AM 27.0 °F 23.0 °F 25.0 °F 92% 30.17 in 10.0 mi North 3.5 mph - N/A   Overcast
1:53 AM 26.1 °F - 24.1 °F 92% 30.16 in 10.0 mi Calm Calm - N/A   Overcast
2:53 AM 28.0 °F - 25.0 °F 88% 30.15 in 10.0 mi Calm Calm - N/A   Overcast
3:53 AM 28.0 °F - 25.0 °F 88% 30.13 in 10.0 mi Calm Calm - N/A   Overcast
4:53 AM 28.0 °F 24.2 °F 25.0 °F 88% 30.15 in 10.0 mi SSW 3.5 mph - N/A   Overcast
5:53 AM 28.0 °F 21.7 °F 25.0 °F 88% 30.17 in 10.0 mi South 5.8 mph - N/A   Overcast
6:53 AM 28.0 °F 20.0 °F 24.1 °F 85% 30.17 in 10.0 mi SW 8.1 mph - N/A   Overcast
7:53 AM 28.9 °F 22.8 °F 24.1 °F 82% 30.18 in 10.0 mi SSW 5.8 mph - N/A   Overcast
8:53 AM 30.9 °F 24.3 °F 24.1 °F 76% 30.18 in 10.0 mi SSW 6.9 mph - N/A   Overcast
9:53 AM 33.1 °F 26.1 °F 25.0 °F 72% 30.16 in 10.0 mi South 8.1 mph - N/A   Overcast
10:53 AM 36.0 °F 29.6 °F 25.0 °F 64% 30.13 in 10.0 mi South 8.1 mph - N/A   Mostly Cloudy
11:53 AM 39.0 °F 31.0 °F 25.0 °F 57% 30.11 in 10.0 mi SSW 13.8 mph - N/A   Overcast
12:53 PM 39.0 °F 31.8 °F 27.0 °F 62% 30.08 in 10.0 mi SSW 11.5 mph - N/A   Overcast
1:31 PM 35.6 °F 26.6 °F 30.2 °F 81% 30.00 in 5.0 mi SSW 13.8 mph - 0.00 in Snow Light Snow
1:37 PM 33.8 °F 24.8 °F 30.2 °F 87% 29.99 in 1.8 mi SSW 12.7 mph - 0.00 in Snow Light Snow
1:47 PM 33.8 °F 26.4 °F 32.0 °F 93% 29.98 in 3.0 mi SSW 9.2 mph - 0.00 in Snow Light Snow
1:53 PM 34.0 °F 26.6 °F 32.0 °F 92% 30.05 in 8.0 mi SSW 9.2 mph - 0.00 in Snow Light Snow
2:07 PM 33.8 °F 28.6 °F 32.0 °F 93% 29.98 in 10.0 mi SSW 5.8 mph - N/A   Overcast
2:17 PM 33.8 °F 29.6 °F 33.8 °F 100% 29.97 in 10.0 mi South 4.6 mph - N/A   Overcast
2:26 PM 35.6 °F 30.7 °F 32.0 °F 87% 29.97 in 10.0 mi South 5.8 mph - N/A   Overcast
2:53 PM 35.1 °F 32.2 °F 32.0 °F 89% 30.02 in 10.0 mi South 3.5 mph - N/A   Overcast
2:56 PM 35.6 °F 32.8 °F 32.0 °F 87% 29.96 in 10.0 mi South 3.5 mph - N/A   Overcast
3:04 PM 35.6 °F - 32.0 °F 87% 29.95 in 10.0 mi Calm Calm - N/A   Overcast
3:43 PM 35.6 °F 32.8 °F 32.0 °F 87% 29.94 in 10.0 mi NW 3.5 mph - N/A   Overcast
3:53 PM 35.1 °F 32.2 °F 32.0 °F 89% 30.00 in 9.0 mi WNW 3.5 mph - 0.00 in Snow Light Snow
4:00 PM 35.6 °F 32.8 °F 32.0 °F 87% 29.94 in 6.0 mi West 3.5 mph - 0.00 in Snow Light Snow
4:22 PM 33.8 °F 30.8 °F 32.0 °F 93% 29.93 in 3.0 mi SSW 3.5 mph - 0.02 in Snow Light Snow
4:42 PM 33.8 °F 27.7 °F 32.0 °F 93% 29.92 in 7.0 mi South 6.9 mph - 0.03 in Snow Light Snow
4:53 PM 33.1 °F 26.9 °F 32.0 °F 96% 29.99 in 5.0 mi SSW 6.9 mph - 0.03 in Snow Light Snow
5:53 PM 33.1 °F 26.1 °F 32.0 °F 96% 29.96 in 10.0 mi South 8.1 mph - 0.01 in   Overcast
6:53 PM 33.1 °F 26.9 °F 30.9 °F 92% 29.94 in 10.0 mi South 6.9 mph - N/A   Overcast
7:53 PM 34.0 °F - 32.0 °F 92% 29.93 in 10.0 mi Calm Calm - 0.00 in   Overcast
8:01 PM 33.8 °F - 32.0 °F 93% 29.87 in 10.0 mi Calm Calm - N/A   Overcast
8:15 PM 33.8 °F - 32.0 °F 93% 29.87 in 10.0 mi Calm Calm - 0.00 in Rain Light Rain
8:53 PM 33.1 °F - 30.9 °F 92% 29.90 in 7.0 mi Calm Calm - 0.01 in   Overcast
9:53 PM 34.0 °F - 32.0 °F 92% 29.86 in 6.0 mi Calm Calm - 0.00 in Rain Light Rain
10:37 PM 33.8 °F 25.3 °F 32.0 °F 93% 29.81 in 4.0 mi SW 11.5 mph - 0.02 in Snow Light Snow
10:48 PM 33.8 °F 19.2 °F 30.2 °F 87% 29.85 in 1.5 mi West 34.5 mph 50.6 mph 0.02 in Snow Light Snow
10:51 PM 30.2 °F 15.2 °F 26.6 °F 86% 29.85 in 0.8 mi West 29.9 mph 50.6 mph 0.02 in Snow Light Snow
10:53 PM 28.9 °F 13.7 °F 27.0 °F 92% 29.91 in 0.8 mi West 28.8 mph 50.6 mph 0.02 in Snow Light Snow
10:59 PM 28.4 °F 13.3 °F 26.6 °F 93% 29.85 in 1.0 mi West 27.6 mph 38.0 mph 0.01 in Snow Light Snow
11:06 PM 28.4 °F 13.8 °F 24.8 °F 86% 29.85 in 2.0 mi West 25.3 mph 40.3 mph 0.01 in Snow Light Snow
11:16 PM 30.2 °F 15.7 °F 24.8 °F 80% 29.84 in 7.0 mi West 27.6 mph 40.3 mph 0.01 in Snow Light Snow
11:27 PM 30.2 °F 17.4 °F 21.2 °F 69% 29.82 in 8.0 mi West 20.7 mph 35.7 mph 0.01 in Snow Light Snow
11:53 PM 28.9 °F 18.2 °F 21.9 °F 75% 29.86 in 10.0 mi West 13.8 mph 24.2 mph 0.01 in   Overcast